SCP
-0 -0 -0 -0 -0 -0 -0 -0 -0 -0 -0 -0 -0 -0 -0 -0 -0 -0 -0 -0 -0 0 0 0 0 -0 0 0 -0 -0 0 0 0 -0 0 0 0 0 0 0 0 0 0 0 0 0 0
-0 -0 -0 -0 -0 -0 -0 -0 -0 -0 -0 -0 -0 -0 -0 -0 -0 -0 -0 -0 -0 0 0 -0 -0 -0 -0 0 -0 -0 0 -0 0 -0 0 0 0 0 0 0 0 0 0 0 0 0 0
-0 -0 -0 -0 -0 -0 -0 -0 -0 -0 -0 -0 -0 -0 -0 -0 -0 -0 -0 -0 0 0 -0 -0 -0 -0 0 0 -0 -0 -0 -0 0 0 0 0 0 0 0 0 0 0 0 0 0 0 0
-0 -0 -0 -0 -0 -0 -0 -0 -0 -0 -0 -0 -0 -0 -0 -0 -0 -0 -0 -0 -0 0 0 -0 -0 -0 0 -0 -0 -0 0 -0 0 0 0 -0 0 0 0 0 0 0 0 0 0 0 0
-0 -0 -0 -0 -0 -0 -0 -0 -0 -0 -0 -0 -0 -0 -0 -0 -0 -0 -0 -0 -0 0 0 0 0 0 0 -0 0 -0 0 0 0 0 0 0 0 0 0 0 0 0 0 0 0 0 0
-0 -0 -0 -0 -0 -0 -0 -0 -0 -0 -0 -0 -0 -0 -0 -0 -0 -0 -0 -0 0 0 0 -0 -0 0 -0 0 -0 -0 0 -0 -0 0 0 0 0 0 0 0 0 0 0 0 0 0 0
0 -0 -0 -0 -0 -0 0 -0 -0 -0 -0 -0 -0 -0 -0 -0 -0 -0 0 0 0 0 0 0 -0 0 -0 -0 -0 -0 -0 0 -0 0 0 0 0 0 0 0 0 0 0 0 0 0 0
0 0 0 0 -0 0 0 0 -0 -0 -0 -0 -0 -0 -0 -0 -0 -0 0 0 0 0 -0 0 0 -0 -0 -0 -0 -0 0 0 0 0 0 0 0 0 0 0 0 0 0 0 0 0 0
0 0 0 0 -0 0 0 -0 -0 -0 -0 -0 -0 -0 -0 -0 -0 0 0 0 -0 0 0 0 0 -0 -0 0 0 -0 0 0 0 0 0 0 0 0 0 0 0 0 0 0 0 0 0
0 0 0 0 0 0 0 -0 -0 -0 -0 -0 -0 -0 -0 -0 0 0 0 0 0 0 0 0 0 0 0 0 0 0 0 0 0 0 0 0 0 0 0 0 0 0 0 0 0 0 0
0 0 0 0 0 0 0 -0 -0 -0 -0 -0 -0 -0 -0 0 0 0 0 0 0 0 0 0 0 0 0 0 0 0 0 0 0 0 0 0 0 0 0 0 0 0 0 0 0 0 0
0 0 0 0 0 -0 -0 0 -0 -0 -0 -0 -0 -0 -0 -0 0 0 0 0 0 0 0 0 0 0 0 0 0 0 0 0 0 0 0 0 0 0 0 0 0 0 0 0 0 0 0
0 0 0 0 -0 -0 -0 0 -0 -0 -0 -0 -0 -0 -0 -0 -0 0 0 0 0 0 0 0 0 0 0 0 0 0 0 0 0 0 0 0 0 0 0 0 0 0 0 0 0 0 0
0 0 0 0 -0 -0 -0 0 0 -0 -0 -0 -0 -0 0 0 0 0 0 0 0 0 0 0 0 0 0 0 0 0 0 0 0 0 0 0 0 0 0 0 0 0 0 0 0 0 0
0 0 0 0 0 -0 -0 -0 0 -0 -0 -0 -0 0 0 0 0 0 0 0 0 0 0 0 0 0 0 0 0 0 0 0 0 0 0 0 0 0 0 0 0 0 0 0 0 0 0
0 0 0 0 0 0 -0 -0 -0 0 0 -0 0 0 0 0 0 0 0 0 0 0 0 0 0 0 0 0 0 0 0 0 0 0 0 0 0 0 0 0 0 0 0 0 0 0 0
0 0 0 0 0 0 0 -0 0 0 0 0 0 0 0 0 0 0 0 0 0 0 0 0 0 0 0 0 0 0 0 0 0 0 0 0 0 0 0 0 0 0 0 0 0 0 0
0 0 0 0 0 0 0 0 0 0 0 -0 0 0 0 0 0 0 0 0 0 0 0 0 0 0 0 0 0 0 0 0 0 0 0 0 0 0 0 0 0 0 0 0 0 0 0
0 0 0 0 0 0 0 0 0 0 0 0 0 0 0 0 0 0 0 0 0 0 0 0 0 0 0 0 0 0 0 0 0 0 0 0 0 0 0 0 0 0 0 0 0 0 0
0 0 0 0 0 0 0 0 0 0 0 0 0 0 0 0 0 0 0 0 0 0 0 0 0 0 0 0 0 0 0 0 0 0 0 0 0 0 0 0 0 0 0 0 0 0 0
0 0 0 0 0 0 0 0 0 0 0 0 0 0 0 0 0 0 0 0 0 0 0 0 0 0 0 0 0 0 0 0 0 0 0 0 0 0 0 0 0 0 0 0 0 0 0
0 0 0 0 0 0 0 0 0 0 0 0 0 0 0 0 0 0 0 0 0 0 0 0 0 0 0 0 0 0 0 0 0 0 0 0 0 0 0 0 0 0 0 0 0 0 0
0 0 0 0 0 0 0 0 0 0 0 0 0 0 0 0 0 0 0 0 0 0 0 0 0 0 0 0 0 0 0 0 0 0 0 0 0 0 0 0 0 0 0 0 0 0 0
0 0 0 0 0 0 0 0 0 0 0 0 0 0 0 0 0 0 0 0 0 0 0 0 0 0 0 0 0 0 0 0 0 0 0 0 0 0 0 0 0 0 0 0 0 0 0
0 0 0 0 0 0 0 0 0 0 0 0 0 0 0 0 0 0 0 0 0 0 0 0 0 0 0 0 0 0 0 0 0 0 0 0 0 0 0 0 0 0 0 0 0 0 0
0 0 0 0 0 0 0 0 0 0 0 0 0 0 0 0 0 0 0 0 0 0 0 0 0 0 0 0 0 0 0 0 0 0 0 0 0 0 0 0 0 0 0 0 0 0 0
0 0 0 0 0 0 0 0 0 0 0 0 0 0 0 0 0 0 0 0 0 0 0 0 0 0 0 0 0 0 0 0 0 0 0 0 0 0 0 0 0 0 0 0 0 0 0
0 0 0 0 0 0 0 0 0 0 0 0 0 0 0 0 0 0 0 0 0 0 0 0 0 0 0 0 0 0 0 0 0 0 0 0 0 0 0 0 0 0 0 0 0 0 0
0 0 0 0 0 0 0 0 0 0 0 0 0 0 0 0 0 0 0 0 0 0 0 0 0 0 0 0 0 0 0 0 0 0 0 0 0 0 0 0 0 0 0 0 0 0 0
Wind_Speed_500mb
47 49 50 51 51 51 50 50 49 48 46 44 42 39 37 35 30 26 26 24 21 17 13 13 16 18 4 8 8 3 5 7 8 9 13 16 19 9 4 4 11 2 2 12 22 28 19
46 48 49 50 51 52 52 51 50 48 46 46 45 41 38 35 31 28 27 24 18 16 13 12 15 16 3 4 2 11 8 2 5 7 11 11 8 8 6 2 4 7 11 24 16 16 4
44 46 47 49 50 52 53 53 53 51 49 47 46 45 40 36 33 29 25 20 15 14 14 11 12 16 3 6 4 4 7 8 7 12 16 15 9 3 6 6 7 5 9 11 3 9 7
43 44 45 47 50 52 53 54 55 54 53 50 49 47 47 35 31 25 21 16 16 16 11 9 13 12 4 8 9 8 10 12 12 19 20 8 6 1 3 8 10 7 9 8 9 13 6
42 45 47 49 51 53 56 58 59 59 57 54 52 49 48 39 27 21 17 17 19 9 2 13 11 2 2 4 8 13 15 17 25 12 10 3 6 5 5 7 10 12 1 1 14 6 5
43 45 47 50 52 55 58 61 63 65 63 59 54 51 47 42 23 16 11 19 13 4 2 7 6 2 4 3 13 16 12 15 11 17 11 5 6 6 7 9 3 4 4 7 9 5 9
44 46 48 51 54 57 59 61 65 67 68 63 57 54 49 42 19 10 10 7 10 2 14 6 13 10 17 7 15 10 7 10 8 15 7 8 10 3 9 14 7 7 6 7 9 8 6
41 44 47 52 56 59 63 65 68 69 70 66 61 57 50 38 15 4 8 8 9 10 14 7 2 9 11 11 8 6 9 5 8 6 5 12 2 8 10 3 8 6 4 8 10 7 5
40 43 47 51 56 60 64 67 70 71 72 68 63 59 51 31 4 10 14 12 8 9 3 8 2 4 3 5 6 7 7 2 5 6 7 7 9 11 8 4 6 4 5 6 10 7 6
43 46 48 52 56 61 65 67 69 73 76 72 63 60 46 21 8 20 10 5 7 8 8 8 3 3 1 4 4 8 2 2 8 6 7 3 11 12 10 7 6 3 3 5 8 7 6
46 48 50 54 58 61 65 67 67 69 75 75 63 53 38 20 4 13 2 4 6 3 6 4 2 2 11 3 2 16 13 3 5 5 12 10 11 14 14 9 6 12 8 4 3 3 3
46 49 52 55 60 63 66 69 69 68 71 74 60 38 31 18 14 5 1 10 2 10 2 4 7 10 9 22 12 8 17 8 10 7 10 6 10 5 6 8 5 9 2 9 7 5 4
45 50 53 57 63 66 67 69 71 70 69 67 57 21 22 20 14 12 7 6 9 8 5 9 6 8 8 11 13 10 9 14 7 10 12 13 8 11 11 12 9 18 12 7 10 9 8
47 52 55 59 63 65 66 69 70 70 66 63 54 15 7 15 19 18 4 9 4 2 3 2 7 7 9 10 7 9 4 6 7 9 5 9 13 10 13 1 6 7 6 9 8 3 10
49 53 55 56 58 60 64 68 71 67 65 63 53 15 6 8 15 18 5 7 12 6 2 4 6 9 9 9 6 7 6 3 2 4 5 7 9 7 6 3 4 2 8 5 10 5 4
49 54 54 52 52 57 62 67 69 66 64 61 54 17 8 7 13 13 9 7 4 4 6 6 5 4 4 5 6 6 5 7 2 4 6 3 5 2 10 7 8 10 9 6 7 4 8
48 54 51 51 51 55 61 67 69 64 62 54 40 11 2 8 9 3 6 9 7 3 5 6 6 5 6 4 3 1 3 7 8 4 6 6 6 10 5 1 4 6 6 10 8 7 5
47 46 47 47 49 52 58 64 66 64 58 47 19 7 7 0 6 4 4 7 5 6 5 4 7 5 5 5 1 0 5 5 8 2 2 2 8 7 12 10 6 4 6 8 5 4 6
38 40 41 45 48 51 57 60 61 57 53 49 35 13 6 4 4 3 9 4 6 7 7 5 5 4 3 7 2 5 3 10 13 10 3 9 1 6 15 10 9 2 4 7 5 5 8
39 39 38 45 50 53 55 55 53 50 42 35 14 8 6 9 11 6 5 3 4 2 6 7 6 6 6 2 2 3 3 5 10 5 8 12 6 12 11 14 6 10 9 9 9 5 6
41 35 39 46 49 48 47 51 46 41 37 21 6 4 4 6 7 6 2 4 1 2 2 7 4 6 10 5 2 5 4 6 6 9 5 8 6 8 12 19 8 20 24 19 15 11 11
43 42 46 46 43 46 48 50 43 34 28 12 9 5 6 6 12 5 5 4 2 9 10 6 9 11 7 11 15 14 10 7 11 2 5 3 4 5 9 6 4 16 15 10 8 8 14
48 44 45 42 41 42 44 47 39 30 20 6 6 7 5 5 4 1 4 1 1 6 1 5 10 8 6 13 22 29 30 27 19 16 12 8 9 4 9 5 11 10 13 11 8 10 9
41 39 41 40 39 38 43 40 31 27 19 10 6 5 3 6 1 5 5 4 5 4 4 6 3 8 2 11 21 25 28 29 29 24 27 11 11 8 7 6 4 10 4 4 9 15 14
38 37 39 38 45 44 38 34 25 21 17 14 7 3 2 4 4 11 6 8 15 9 3 3 6 8 12 8 7 11 10 9 1 4 13 14 9 5 4 5 10 12 4 7 6 15 13
41 42 43 47 41 38 35 27 20 17 14 12 10 6 4 1 6 1 4 5 4 6 10 4 1 12 3 7 5 2 5 5 8 3 17 11 8 5 4 5 9 10 7 16 6 10 11
56 52 53 43 39 36 29 24 18 14 12 13 14 11 6 7 8 8 6 3 2 2 2 8 13 7 4 4 4 6 8 6 5 4 7 6 3 12 4 6 12 8 19 9 2 11 19
45 44 41 36 32 29 26 22 19 15 10 12 14 12 12 10 21 26 20 14 7 2 3 7 7 3 5 4 6 5 6 4 5 5 5 11 10 8 5 7 12 12 9 2 6 37 31
35 35 35 33 30 28 24 23 21 20 14 14 14 20 20 20 16 20 27 24 22 24 18 8 3 2 5 6 1 2 3 1 3 5 5 4 9 6 13 10 7 10 17 30 27 40 43
Wind_Direction_500mb
38 36 34 32 31 29 27 25 24 22 19 16 12 8 4 0 355 347 344 342 338 337 336 332 348 357 74 71 85 49 286 339 6 12 8 12 25 57 47 318 348 135 253 277 292 282 268
34 31 30 28 27 25 22 20 18 15 12 10 6 3 359 356 354 345 337 340 340 344 338 330 344 357 63 121 63 11 36 273 330 6 355 336 349 1 105 345 139 304 294 294 291 346 314
29 27 25 24 23 21 18 15 13 10 6 3 1 359 354 350 349 346 341 345 342 331 337 325 338 352 182 154 243 6 25 35 17 339 329 352 333 354 333 348 320 312 334 333 306 339 315
23 22 21 19 17 15 12 9 7 4 1 358 355 353 353 342 345 346 339 343 339 320 313 334 338 339 196 228 266 308 317 344 336 331 325 323 302 19 3 315 12 50 44 44 303 345 344
18 16 15 14 12 11 8 6 3 0 356 353 352 348 348 345 337 345 338 343 337 353 89 324 311 356 201 291 312 324 321 327 338 334 308 136 130 69 43 51 12 10 26 233 325 345 331
12 10 10 9 7 6 5 4 1 359 356 351 347 346 345 345 330 337 331 339 331 43 241 16 61 121 206 144 334 315 328 340 24 47 94 51 65 59 37 65 210 264 355 323 288 279 15
5 5 4 3 2 1 0 0 359 356 355 351 346 342 345 342 329 333 332 339 354 346 313 277 287 277 278 290 304 322 283 320 33 56 40 21 66 259 254 215 201 139 190 247 268 279 358
0 359 358 358 359 358 357 357 357 355 352 352 348 341 344 341 333 116 89 81 48 336 313 4 352 260 264 275 294 296 251 332 35 31 5 24 339 242 279 187 172 183 203 274 282 269 145
354 354 353 354 355 355 355 356 357 356 352 353 348 341 343 342 343 145 112 85 23 351 336 302 342 289 289 247 251 320 201 12 58 30 23 141 269 312 293 244 145 190 162 259 247 316 302
349 349 349 348 352 352 352 352 353 356 354 355 349 343 345 356 134 148 112 50 6 352 65 293 321 58 283 245 21 31 46 344 17 13 352 285 326 5 25 56 53 338 332 255 269 21 282
344 345 345 345 346 348 347 346 348 349 353 357 351 347 351 358 184 166 208 337 331 317 78 256 40 48 4 136 357 25 20 77 19 27 62 285 4 3 26 328 316 239 355 9 326 122 42
338 338 340 340 340 342 342 342 343 345 345 353 352 354 10 47 92 101 34 345 138 49 181 349 44 342 53 29 31 26 42 67 66 77 22 302 304 53 315 303 11 293 11 42 52 78 38
327 330 332 334 334 335 338 340 339 342 342 347 352 358 33 29 14 344 309 316 45 119 336 330 13 2 80 22 14 38 30 23 50 34 358 338 340 322 16 359 358 40 47 348 357 5 230
320 324 326 329 331 332 335 338 338 338 340 341 351 335 15 16 14 3 338 57 138 194 85 326 41 56 78 5 44 4 64 37 30 70 75 46 333 13 325 180 249 358 107 146 219 269 291
315 319 321 324 327 330 334 336 336 336 338 336 348 322 240 332 339 358 358 69 193 210 150 49 57 73 8 2 57 65 25 165 168 75 76 46 291 321 294 293 117 113 49 152 104 20 336
313 317 319 320 324 330 333 336 335 336 335 336 343 322 241 300 334 333 77 206 206 223 111 71 116 108 127 331 47 45 14 348 76 39 120 151 326 312 289 12 30 90 155 32 14 23 301
309 309 313 316 323 328 333 335 334 337 334 337 337 319 310 310 324 343 142 217 220 131 136 124 157 125 147 126 208 40 353 13 20 29 78 120 118 286 323 105 164 1 36 59 116 136 201
303 307 309 315 321 328 333 335 335 336 336 338 347 331 337 303 48 54 150 201 197 152 102 78 106 130 144 149 62 149 154 146 49 332 323 63 142 272 248 278 287 277 155 122 122 252 227
303 309 312 315 319 324 332 332 334 336 340 341 329 288 350 178 129 309 305 287 213 145 177 143 146 157 152 169 130 200 192 153 31 22 190 181 6 348 348 353 11 356 314 139 107 61 218
302 302 309 317 319 319 326 327 332 332 337 336 328 338 344 64 78 112 32 295 314 39 144 124 116 99 108 123 76 208 221 204 332 323 159 135 135 162 190 230 183 291 266 249 188 190 226
296 298 313 318 322 324 325 327 329 331 333 331 314 312 337 320 16 6 212 297 308 261 120 142 42 163 155 161 304 248 228 311 319 150 90 118 203 183 245 255 241 261 269 273 195 207 190
288 298 308 314 314 320 321 326 328 328 331 315 317 348 330 294 314 302 359 82 1 313 166 224 165 188 168 164 192 218 198 192 228 190 131 8 242 190 288 282 240 267 266 252 208 212 247
282 291 302 304 303 311 320 324 328 327 333 308 309 302 305 289 342 120 223 283 135 334 288 220 168 141 188 237 250 261 259 240 214 172 182 168 152 110 260 322 324 314 224 221 255 248 218
274 290 296 300 303 307 313 317 323 324 330 337 325 302 278 279 318 255 342 322 269 304 245 343 123 157 336 295 298 284 269 258 236 230 193 168 147 164 252 15 263 244 267 244 235 265 247
277 284 287 294 301 302 302 305 312 314 318 320 277 293 259 271 263 298 307 300 303 302 241 260 67 359 336 340 11 350 337 356 122 132 204 164 149 199 197 206 291 299 249 227 203 281 263
276 283 290 290 294 296 292 290 300 306 308 304 259 254 241 283 256 261 317 323 303 332 341 294 347 345 346 85 78 231 259 281 309 117 38 81 90 140 144 224 231 243 286 336 129 292 287
275 279 282 280 279 279 278 280 288 293 295 285 262 248 243 257 269 223 213 234 276 67 248 307 341 360 51 103 152 185 249 239 271 293 166 100 110 207 167 258 280 242 307 332 151 253 308
269 270 268 265 261 264 266 270 276 278 273 271 264 252 233 252 267 261 253 217 210 269 163 325 342 334 38 113 153 219 204 266 324 268 194 170 154 201 154 204 272 355 1 296 260 323 307
263 260 257 255 254 255 259 265 270 273 269 260 256 251 255 261 264 263 266 247 234 245 266 254 252 287 221 101 135 101 267 334 167 271 331 255 181 191 184 224 249 333 332 323 327 311 303
Wind_Speed_850mb
47 49 50 51 51 51 50 50 49 48 46 44 42 39 37 35 30 26 26 24 21 17 13 13 16 18 4 8 8 3 5 7 8 9 13 16 19 9 4 4 11 2 2 12 22 28 19
46 48 49 50 51 52 52 51 50 48 46 46 45 41 38 35 31 28 27 24 18 16 13 12 15 16 3 4 2 11 8 2 5 7 11 11 8 8 6 2 4 7 11 24 16 16 4
44 46 47 49 50 52 53 53 53 51 49 47 46 45 40 36 33 29 25 20 15 14 14 11 12 16 3 6 4 4 7 8 7 12 16 15 9 3 6 6 7 5 9 11 3 9 7
43 44 45 47 50 52 53 54 55 54 53 50 49 47 47 35 31 25 21 16 16 16 11 9 13 12 4 8 9 8 10 12 12 19 20 8 6 1 3 8 10 7 9 8 9 13 6
42 45 47 49 51 53 56 58 59 59 57 54 52 49 48 39 27 21 17 17 19 9 2 13 11 2 2 4 8 13 15 17 25 12 10 3 6 5 5 7 10 12 1 1 14 6 5
43 45 47 50 52 55 58 61 63 65 63 59 54 51 47 42 23 16 11 19 13 4 2 7 6 2 4 3 13 16 12 15 11 17 11 5 6 6 7 9 3 4 4 7 9 5 9
44 46 48 51 54 57 59 61 65 67 68 63 57 54 49 42 19 10 10 7 10 2 14 6 13 10 17 7 15 10 7 10 8 15 7 8 10 3 9 14 7 7 6 7 9 8 6
41 44 47 52 56 59 63 65 68 69 70 66 61 57 50 38 15 4 8 8 9 10 14 7 2 9 11 11 8 6 9 5 8 6 5 12 2 8 10 3 8 6 4 8 10 7 5
40 43 47 51 56 60 64 67 70 71 72 68 63 59 51 31 4 10 14 12 8 9 3 8 2 4 3 5 6 7 7 2 5 6 7 7 9 11 8 4 6 4 5 6 10 7 6
43 46 48 52 56 61 65 67 69 73 76 72 63 60 46 21 8 20 10 5 7 8 8 8 3 3 1 4 4 8 2 2 8 6 7 3 11 12 10 7 6 3 3 5 8 7 6
46 48 50 54 58 61 65 67 67 69 75 75 63 53 38 20 4 13 2 4 6 3 6 4 2 2 11 3 2 16 13 3 5 5 12 10 11 14 14 9 6 12 8 4 3 3 3
46 49 52 55 60 63 66 69 69 68 71 74 60 38 31 18 14 5 1 10 2 10 2 4 7 10 9 22 12 8 17 8 10 7 10 6 10 5 6 8 5 9 2 9 7 5 4
45 50 53 57 63 66 67 69 71 70 69 67 57 21 22 20 14 12 7 6 9 8 5 9 6 8 8 11 13 10 9 14 7 10 12 13 8 11 11 12 9 18 12 7 10 9 8
47 52 55 59 63 65 66 69 70 70 66 63 54 15 7 15 19 18 4 9 4 2 3 2 7 7 9 10 7 9 4 6 7 9 5 9 13 10 13 1 6 7 6 9 8 3 10
49 53 55 56 58 60 64 68 71 67 65 63 53 15 6 8 15 18 5 7 12 6 2 4 6 9 9 9 6 7 6 3 2 4 5 7 9 7 6 3 4 2 8 5 10 5 4
49 54 54 52 52 57 62 67 69 66 64 61 54 17 8 7 13 13 9 7 4 4 6 6 5 4 4 5 6 6 5 7 2 4 6 3 5 2 10 7 8 10 9 6 7 4 8
48 54 51 51 51 55 61 67 69 64 62 54 40 11 2 8 9 3 6 9 7 3 5 6 6 5 6 4 3 1 3 7 8 4 6 6 6 10 5 1 4 6 6 10 8 7 5
47 46 47 47 49 52 58 64 66 64 58 47 19 7 7 0 6 4 4 7 5 6 5 4 7 5 5 5 1 0 5 5 8 2 2 2 8 7 12 10 6 4 6 8 5 4 6
38 40 41 45 48 51 57 60 61 57 53 49 35 13 6 4 4 3 9 4 6 7 7 5 5 4 3 7 2 5 3 10 13 10 3 9 1 6 15 10 9 2 4 7 5 5 8
39 39 38 45 50 53 55 55 53 50 42 35 14 8 6 9 11 6 5 3 4 2 6 7 6 6 6 2 2 3 3 5 10 5 8 12 6 12 11 14 6 10 9 9 9 5 6
41 35 39 46 49 48 47 51 46 41 37 21 6 4 4 6 7 6 2 4 1 2 2 7 4 6 10 5 2 5 4 6 6 9 5 8 6 8 12 19 8 20 24 19 15 11 11
43 42 46 46 43 46 48 50 43 34 28 12 9 5 6 6 12 5 5 4 2 9 10 6 9 11 7 11 15 14 10 7 11 2 5 3 4 5 9 6 4 16 15 10 8 8 14
48 44 45 42 41 42 44 47 39 30 20 6 6 7 5 5 4 1 4 1 1 6 1 5 10 8 6 13 22 29 30 27 19 16 12 8 9 4 9 5 11 10 13 11 8 10 9
41 39 41 40 39 38 43 40 31 27 19 10 6 5 3 6 1 5 5 4 5 4 4 6 3 8 2 11 21 25 28 29 29 24 27 11 11 8 7 6 4 10 4 4 9 15 14
38 37 39 38 45 44 38 34 25 21 17 14 7 3 2 4 4 11 6 8 15 9 3 3 6 8 12 8 7 11 10 9 1 4 13 14 9 5 4 5 10 12 4 7 6 15 13
41 42 43 47 41 38 35 27 20 17 14 12 10 6 4 1 6 1 4 5 4 6 10 4 1 12 3 7 5 2 5 5 8 3 17 11 8 5 4 5 9 10 7 16 6 10 11
56 52 53 43 39 36 29 24 18 14 12 13 14 11 6 7 8 8 6 3 2 2 2 8 13 7 4 4 4 6 8 6 5 4 7 6 3 12 4 6 12 8 19 9 2 11 19
45 44 41 36 32 29 26 22 19 15 10 12 14 12 12 10 21 26 20 14 7 2 3 7 7 3 5 4 6 5 6 4 5 5 5 11 10 8 5 7 12 12 9 2 6 37 31
35 35 35 33 30 28 24 23 21 20 14 14 14 20 20 20 16 20 27 24 22 24 18 8 3 2 5 6 1 2 3 1 3 5 5 4 9 6 13 10 7 10 17 30 27 40 43
Wind_Direction_850mb
38 36 34 32 31 29 27 25 24 22 19 16 12 8 4 0 355 347 344 342 338 337 336 332 348 357 74 71 85 49 286 339 6 12 8 12 25 57 47 318 348 135 253 277 292 282 268
34 31 30 28 27 25 22 20 18 15 12 10 6 3 359 356 354 345 337 340 340 344 338 330 344 357 63 121 63 11 36 273 330 6 355 336 349 1 105 345 139 304 294 294 291 346 314
29 27 25 24 23 21 18 15 13 10 6 3 1 359 354 350 349 346 341 345 342 331 337 325 338 352 182 154 243 6 25 35 17 339 329 352 333 354 333 348 320 312 334 333 306 339 315
23 22 21 19 17 15 12 9 7 4 1 358 355 353 353 342 345 346 339 343 339 320 313 334 338 339 196 228 266 308 317 344 336 331 325 323 302 19 3 315 12 50 44 44 303 345 344
18 16 15 14 12 11 8 6 3 0 356 353 352 348 348 345 337 345 338 343 337 353 89 324 311 356 201 291 312 324 321 327 338 334 308 136 130 69 43 51 12 10 26 233 325 345 331
12 10 10 9 7 6 5 4 1 359 356 351 347 346 345 345 330 337 331 339 331 43 241 16 61 121 206 144 334 315 328 340 24 47 94 51 65 59 37 65 210 264 355 323 288 279 15
5 5 4 3 2 1 0 0 359 356 355 351 346 342 345 342 329 333 332 339 354 346 313 277 287 277 278 290 304 322 283 320 33 56 40 21 66 259 254 215 201 139 190 247 268 279 358
0 359 358 358 359 358 357 357 357 355 352 352 348 341 344 341 333 116 89 81 48 336 313 4 352 260 264 275 294 296 251 332 35 31 5 24 339 242 279 187 172 183 203 274 282 269 145
354 354 353 354 355 355 355 356 357 356 352 353 348 341 343 342 343 145 112 85 23 351 336 302 342 289 289 247 251 320 201 12 58 30 23 141 269 312 293 244 145 190 162 259 247 316 302
349 349 349 348 352 352 352 352 353 356 354 355 349 343 345 356 134 148 112 50 6 352 65 293 321 58 283 245 21 31 46 344 17 13 352 285 326 5 25 56 53 338 332 255 269 21 282
344 345 345 345 346 348 347 346 348 349 353 357 351 347 351 358 184 166 208 337 331 317 78 256 40 48 4 136 357 25 20 77 19 27 62 285 4 3 26 328 316 239 355 9 326 122 42
338 338 340 340 340 342 342 342 343 345 345 353 352 354 10 47 92 101 34 345 138 49 181 349 44 342 53 29 31 26 42 67 66 77 22 302 304 53 315 303 11 293 11 42 52 78 38
327 330 332 334 334 335 338 340 339 342 342 347 352 358 33 29 14 344 309 316 45 119 336 330 13 2 80 22 14 38 30 23 50 34 358 338 340 322 16 359 358 40 47 348 357 5 230
320 324 326 329 331 332 335 338 338 338 340 341 351 335 15 16 14 3 338 57 138 194 85 326 41 56 78 5 44 4 64 37 30 70 75 46 333 13 325 180 249 358 107 146 219 269 291
315 319 321 324 327 330 334 336 336 336 338 336 348 322 240 332 339 358 358 69 193 210 150 49 57 73 8 2 57 65 25 165 168 75 76 46 291 321 294 293 117 113 49 152 104 20 336
313 317 319 320 324 330 333 336 335 336 335 336 343 322 241 300 334 333 77 206 206 223 111 71 116 108 127 331 47 45 14 348 76 39 120 151 326 312 289 12 30 90 155 32 14 23 301
309 309 313 316 323 328 333 335 334 337 334 337 337 319 310 310 324 343 142 217 220 131 136 124 157 125 147 126 208 40 353 13 20 29 78 120 118 286 323 105 164 1 36 59 116 136 201
303 307 309 315 321 328 333 335 335 336 336 338 347 331 337 303 48 54 150 201 197 152 102 78 106 130 144 149 62 149 154 146 49 332 323 63 142 272 248 278 287 277 155 122 122 252 227
303 309 312 315 319 324 332 332 334 336 340 341 329 288 350 178 129 309 305 287 213 145 177 143 146 157 152 169 130 200 192 153 31 22 190 181 6 348 348 353 11 356 314 139 107 61 218
302 302 309 317 319 319 326 327 332 332 337 336 328 338 344 64 78 112 32 295 314 39 144 124 116 99 108 123 76 208 221 204 332 323 159 135 135 162 190 230 183 291 266 249 188 190 226
296 298 313 318 322 324 325 327 329 331 333 331 314 312 337 320 16 6 212 297 308 261 120 142 42 163 155 161 304 248 228 311 319 150 90 118 203 183 245 255 241 261 269 273 195 207 190
288 298 308 314 314 320 321 326 328 328 331 315 317 348 330 294 314 302 359 82 1 313 166 224 165 188 168 164 192 218 198 192 228 190 131 8 242 190 288 282 240 267 266 252 208 212 247
282 291 302 304 303 311 320 324 328 327 333 308 309 302 305 289 342 120 223 283 135 334 288 220 168 141 188 237 250 261 259 240 214 172 182 168 152 110 260 322 324 314 224 221 255 248 218
274 290 296 300 303 307 313 317 323 324 330 337 325 302 278 279 318 255 342 322 269 304 245 343 123 157 336 295 298 284 269 258 236 230 193 168 147 164 252 15 263 244 267 244 235 265 247
277 284 287 294 301 302 302 305 312 314 318 320 277 293 259 271 263 298 307 300 303 302 241 260 67 359 336 340 11 350 337 356 122 132 204 164 149 199 197 206 291 299 249 227 203 281 263
276 283 290 290 294 296 292 290 300 306 308 304 259 254 241 283 256 261 317 323 303 332 341 294 347 345 346 85 78 231 259 281 309 117 38 81 90 140 144 224 231 243 286 336 129 292 287
275 279 282 280 279 279 278 280 288 293 295 285 262 248 243 257 269 223 213 234 276 67 248 307 341 360 51 103 152 185 249 239 271 293 166 100 110 207 167 258 280 242 307 332 151 253 308
269 270 268 265 261 264 266 270 276 278 273 271 264 252 233 252 267 261 253 217 210 269 163 325 342 334 38 113 153 219 204 266 324 268 194 170 154 201 154 204 272 355 1 296 260 323 307
263 260 257 255 254 255 259 265 270 273 269 260 256 251 255 261 264 263 266 247 234 245 266 254 252 287 221 101 135 101 267 334 167 271 331 255 181 191 184 224 249 333 332 323 327 311 303